This is the latest recevied weather packets stored in our database for station/object WE0DX-1. If no packets are shown the sender has not sent any weather packets the latest 10 day(s).
| Time | Temp. | Humidity | Pressure | Rain* | Wind** | Luminosity | Snow |
|---|---|---|---|---|---|---|---|
| 1778037342 | 10.56° C | 63% | 1013 hPa | 0 mm | - | 0 W/m² | - |
| 1778037038 | 10.56° C | 65% | 1012.7 hPa | 0 mm | - | 0 W/m² | - |
| 1778036737 | 10.56° C | 64% | 1012.5 hPa | 0 mm | - | 0 W/m² | - |
| 1778036434 | 10.56° C | 64% | 1012.5 hPa | 0 mm | - | 0 W/m² | - |
| 1778036131 | 10.56° C | 64% | 1012.4 hPa | 0 mm | - | 0 W/m² | - |
| 1778035826 | 10.56° C | 64% | 1012.3 hPa | 0 mm | - | 0 W/m² | - |
| 1778035524 | 10.56° C | 64% | 1012.3 hPa | 0 mm | - | 0 W/m² | - |
| 1778035220 | 10.56° C | 63% | 1012.4 hPa | 0 mm | - | 0 W/m² | - |
| 1778034916 | 10.56° C | 64% | 1012.1 hPa | 0 mm | - | 0 W/m² | - |
| 1778034614 | 10.56° C | 64% | 1012.2 hPa | 0 mm | - | 0 W/m² | - |
| 1778034311 | 10.56° C | 65% | 1012.5 hPa | 0 mm | - | 0 W/m² | - |
| 1778034009 | 10.56° C | 67% | 1012.2 hPa | 0 mm | - | 0 W/m² | - |
| 1778033706 | 10° C | 78% | 1011.9 hPa | 0 mm | - | 0 W/m² | - |
| 1778033403 | 10° C | 82% | 1012.1 hPa | 0 mm | - | 0 W/m² | - |
| 1778033100 | 10° C | 89% | 1011.7 hPa | 0 mm | - | 0 W/m² | - |
| 1778032797 | 10° C | 93% | 1011.9 hPa | 0 mm | - | 0 W/m² | - |
| 1778032496 | 10° C | 92% | 1011.5 hPa | 0 mm | - | 0 W/m² | - |
| 1778032193 | 10.56° C | 91% | 1011.6 hPa | 0 mm | - | 0 W/m² | - |
| 1778031889 | 10° C | 90% | 1011.5 hPa | 0 mm | - | 0 W/m² | - |
| 1778031586 | 10° C | 90% | 1011.5 hPa | 0 mm | - | 0 W/m² | - |
| 1778031284 | 10.56° C | 92% | 1011.6 hPa | 0 mm | - | 0 W/m² | - |
| 1778030980 | 10.56° C | 91% | 1011.3 hPa | 0 mm | - | 0 W/m² | - |
| 1778030676 | 10.56° C | 91% | 1011.4 hPa | 0 mm | - | 0 W/m² | - |
| 1778030373 | 10.56° C | 91% | 1011.2 hPa | 0 mm | - | 0 W/m² | - |
| 1778030070 | 10.56° C | 89% | 1011.3 hPa | 0 mm | - | 0 W/m² | - |
* Rain latest hour (hover to see other rain measurements)
** Current wind speed in m/s (hover to see current wind gust speed)